Regional Weather Roundup
Issued by NWS

Home | Current Version | Previous Version | Text Only | Print | Product List | Glossary On
Versions: 1 2 3 4 5 6 7 8 9 10 11 12 13 14 15 16 17 18 19 20 21 22 23 24 25 26 27 28
000
ASUS46 KPQR 280510
RWROR

OREGON REGIONAL WEATHER ROUNDUP
NATIONAL WEATHER SERVICE PORTLAND OR
1000 PM PDT TUE SEP 27 2016

NOTE: "FAIR" INDICATES FEW OR NO CLOUDS BELOW 12,000 FEET WITH
NO SIGNIFICANT WEATHER AND/OR OBSTRUCTIONS TO VISIBILITY.

ORZ001>013-280600-
NORTHWEST OREGON


CITY           SKY/WX    TMP DP  RH WIND       PRES   REMARKS
ASTORIA        CLEAR     58  54  86 NW10      30.11S
NEWPORT          N/A     52  50  93 N7        30.10S FOG
PORTLAND       CLEAR     64  48  56 W8        30.05S
VANCOUVER WA   CLEAR     63  48  58 W6        30.04S
SCAPPOOSE      CLEAR     63  45  51 N9        30.05R
HILLSBORO      CLEAR     61  51  70 NW10      30.05S
AURORA         NOT AVBL
MCMINNVILLE    CLEAR     63  50  62 N7        30.06S
SALEM          CLEAR     61  51  70 N6        30.04R
CORVALLIS        N/A     61  52  72 NW7       30.05S
EUGENE         CLEAR     58  47  66 N8        30.03S
$$

ORZ021-028-280600-
SOUTHWEST OREGON


CITY           SKY/WX    TMP DP  RH WIND       PRES   REMARKS
NORTH BEND       N/A     55  54  94 N10       30.06R
BROOKINGS      CLEAR     56  53  90 CALM      29.95R
ROSEBURG       CLEAR     69  49  48 N7        30.00R
SEXTON SUMMIT  CLEAR     57  48  72 N14       30.07R
MEDFORD        CLEAR     70  53  54 NE6       29.95R
$$

ORZ014>016-041-280600-
COLUMBIA GORGE


CITY           SKY/WX    TMP DP  RH WIND       PRES   REMARKS
TROUTDALE      CLEAR     62  50  64 CALM      30.04R
HOOD RIVER     CLEAR     57  48  72 CALM      30.02S
THE DALLES     CLEAR     68  51  54 NW8       29.98R
$$

ORZ029>031-041-044-049-050-061>064-502-503-505>511-280600-
EASTERN OREGON


CITY           SKY/WX    TMP DP  RH WIND       PRES   REMARKS
REDMOND        CLEAR     65  45  48 NW8       30.04R
BEND           CLEAR     64  45  48 W7        30.06S
PRINEVILLE     CLEAR     59  41  51 CALM      30.05R
KLAMATH FALLS  CLEAR     54  42  64 CALM      30.05S
LAKEVIEW       CLEAR     54  32  43 NW9       30.11S
HERMISTON      CLEAR     62  47  57 SE7       29.96R
PENDLETON      CLEAR     62  46  55 E6        30.00R
JOHN DAY       CLEAR     66  41  39 SW3       30.07S
MEACHAM        CLEAR     50  43  77 CALM      30.11R
LA GRANDE      CLEAR     64  41  42 NW8       30.03F
BAKER CITY     CLEAR     54  41  61 S5        30.07R
BURNS          CLEAR     56  34  43 W5        30.07S
ROME             N/A     63  33  32 VRB3      30.04S
ONTARIO        CLEAR     59  46  62 W7        30.00R
$$




USA.gov is the U.S. government's official web portal to all federal, state and local government web resources and services.